SCP
0 0 0 0 0 0 0 0 0 0 0 0 0 0 0 0 0 0 0 0 -0 -0 -0 -0 -0 -0 -0 -0 -0 -0 -0 -0 -0 -0 -0 -0 -0 -0 -0 -0 -0 -0 -0 -0 -0 -0 -0 -0 -0
0 0 0 0 0 0 -0 0 0 0 0 0 0 0 0 0 0 0 0 0 0 -0 0 0 -0 -0 -0 -0 -0 -0 -0 -0 -0 -0 -0 -0 -0 -0 -0 -0 -0 -0 -0 -0 -0 -0 -0 0 -0
0 0 0 0 0 0 0 0 0 0 0 0 0 0 0 0 0 0 0 0 0 0 0 0 0 -0 -0 -0 -0 -0 -0 -0 -0 -0 -0 -0 -0 -0 -0 -0 -0 0 0 0 0 0 0 0 0
0 0 0 0 0 -0 0 0 0 0 0 0 0 0 0 0 0 0 0 0 0 0 0 0 0 0 0 0 -0 -0 -0 -0 -0 -0 -0 -0 -0 -0 -0 0 0 0 0 0 0 0 0 0 0
0 0 0 0 0 0 0 0 0 0 0 0 0 0 0 0 0 0 0 0 0 0 0 0 0 0 0 0 0 0 -0 0 0 0 0 0 0 0 0 0 0 0 0 0 0 0 0 0 0
0 0 0 0 0 0 0 0 0 0 0 0 0 0 0 0 0 0 0 0 0 0 0 0 0 0 0 0 0 0 0 0 0 0 0 0 0 0 0 0 0 0 0 0 0 0 0 0 0
0 0 0 0 0 0 0 0 0 0 0 0 0 0 0 0 0 0 0 0 0 0 0 0 0 0 0 0 0 0 0 0 0 0 0 0 0 0 0 0 0 0 0 0 0 0 0 0 0
0 0 0 0 0 0 0 0 0 0 0 0 0 0 0 0 0 0 0 0 0 0 0 0 0 0 0 0 0 0 0 0 0 0 0 0 0 0 0 0 0 0 0 0 0 0 0 0 0
0 0 0 0 0 0 0 0 0 0 0 0 0 0 0 0 0 0 0 0 0 0 0 0 0 0 0 0 0 0 0 0 0 0 0 0 0 0 0 0 0 0 0 0 0 0 0 0 0
0 0 0 0 0 0 0 0 0 0 0 0 0 0 0 0 0 0 0 0 0 0 0 0 0 0 0 0 0 0 0 0 0 0 0 0 0 0 0 0 0 0 0 0 0 0 0 0 0
0 0 0 0 0 0 0 0 0 0 0 0 0 0 0 0 0 0 0 0 -0 0 0 0 0 0 0 0 0 0 0 0 0 0 0 0 0 0 0 0 0 0 0 0 0 0 0 0 0
0 0 0 0 0 0 0 0 0 0 0 0 0 0 0 0 0 0 0 0 0 0 0 0 0 0 0 0 0 0 0 0 0 0 0 0 0 0 0 0 0 0 0 0 0 0 0 0 0
0 0 0 0 0 0 0 0 0 0 0 0 0 0 0 0 0 0 0 0 0 0 0 0 0 0 0 0 0 0 0 0 0 0 0 0 0 0 0 0 0 0 0 0 0 0 0 0 0
0 0 0 0 0 0 0 0 0 0 0 0 0 0 0 0 0 0 0 0 0 0 0 0 0 0 0 0 0 0 0 0 0 0 0 0 0 0 0 0 0 0 0 0 0 0 0 0 0
0 0 0 0 0 0 0 0 0 0 0 0 0 0 0 0 0 0 0 0 0 0 0 0 0 0 0 0 0 0 0 0 0 0 0 0 0 0 0 0 0 0 0 0 0 0 0 0 0
0 0 0 0 0 0 0 0 0 0 0 0 0 0 0 0 0 0 0 0 0 0 0 0 0 0 0 0 0 0 0 0 0 0 0 0 0 0 0 0 0 0 0 0 0 0 0 0 0
0 0 0 0 0 0 0 0 0 0 0 0 0 0 0 0 0 0 0 0 0 0 0 0 0 0 0 0 0 0 0 0 0 0 0 0 0 0 0 0 0 0 0 0 0 0 0 0 0
0 0 0 0 0 0 0 0 0 0 0 0 0 0 0 0 0 0 0 0 0 0 0 0 0 0 0 0 0 0 0 0 0 0 0 0 0 0 0 0 0 0 0 0 0 0 0 0 0
0 0 0 0 0 0 0 0 0 0 0 0 0 0 0 0 0 0 0 0 0 0 0 0 0 0 0 0 0 0 0 0 0 0 0 0 0 0 0 0 0 0 0 0 0 0 0 0 0
0 0 0 0 0 0 0 0 0 0 0 0 0 0 0 0 0 0 0 0 0 0 0 0 0 0 0 0 0 0 0 0 0 0 0 0 0 0 0 0 0 0 0 0 0 0 0 0 0
0 0 0 0 0 0 0 0 0 0 0 0 0 0 0 0 0 0 0 0 0 0 0 0 0 0 0 0 0 0 0 0 0 0 0 0 0 0 0 0 0 0 0 0 0 0 0 0 0
0 0 0 0 0 0 0 -0 0 0 0 0 0 0 0 0 0 0 0 0 0 0 0 0 0 0 0 0 0 0 0 0 0 0 0 0 0 0 0 0 0 0 0 0 0 0 0 0 0
0 0 0 0 0 0 0 0 0 0 0 0 0 0 0 0 0 0 0 0 0 0 0 0 0 0 0 0 0 0 0 0 0 0 0 0 0 0 0 0 0 0 0 0 0 0 0 0 0
0 0 0 0 0 0 0 0 0 0 0 0 0 0 0 0 0 0 0 0 0 0 0 0 0 0 0 0 0 0 0 0 0 0 0 0 0 0 0 0 0 0 0 0 0 0 0 0 0
0 0 0 0 0 0 0 0 0 0 0 0 0 0 0 0 0 0 0 0 0 0 0 0 0 0 0 0 0 0 0 0 0 0 0 0 0 0 0 0 0 0 0 0 0 0 0 0 0
0 0 0 0 0 0 0 0 0 0 0 0 0 0 0 0 0 0 0 0 0 0 0 0 0 0 0 0 0 0 0 0 0 0 0 0 0 0 0 0 0 0 0 0 0 0 0 0 0
0 0 0 0 0 0 0 0 0 0 0 0 0 0 0 0 0 0 0 0 0 0 0 0 0 0 0 0 0 0 0 0 0 0 0 0 0 0 0 0 0 0 0 0 0 0 0 0 0
0 0 0 0 0 0 0 0 0 0 0 0 0 0 0 0 0 0 0 0 0 0 0 0 0 0 0 0 0 0 0 0 0 0 0 0 0 0 0 0 0 0 0 0 0 0 0 0 0
0 0 0 0 0 0 0 0 0 0 0 0 0 0 0 0 0 0 0 0 0 0 0 0 0 0 0 0 0 0 0 0 0 0 0 0 0 0 0 0 0 0 0 0 0 0 0 0 0
0 0 0 0 0 0 0 0 0 0 0 0 0 0 0 0 0 0 0 0 0 0 0 0 0 0 0 0 0 0 0 0 0 0 0 0 0 0 0 0 0 0 0 0 0 0 0 0 0
Wind_Speed_500mb
7 5 1 4 7 9 7 10 6 6 5 6 16 9 16 7 5 7 24 29 28 30 26 25 24 22 21 19 17 15 12 11 8 8 8 10 11 13 13 12 12 15 16 18 19 21 22 21 20
5 7 4 1 6 4 10 6 8 4 11 13 13 8 10 2 5 10 30 37 33 34 27 24 21 19 18 16 16 14 13 12 13 14 13 13 14 15 15 15 15 17 20 22 23 24 24 24 25
5 3 1 7 5 8 7 9 14 12 14 10 7 3 4 10 13 10 21 34 40 33 29 27 24 22 19 18 16 14 13 12 14 13 12 13 14 15 15 14 14 14 16 20 23 24 24 26 28
6 4 2 6 13 16 7 11 15 19 9 14 10 5 8 18 9 14 25 33 39 36 31 29 28 26 22 19 18 17 15 14 12 10 9 7 7 7 8 10 11 12 14 16 17 20 21 24 24
3 2 2 5 13 11 2 31 30 11 14 18 18 8 8 24 27 17 22 37 41 39 34 31 30 27 23 22 19 16 14 13 11 10 8 7 7 6 6 7 7 7 7 10 13 15 16 17 18
3 1 4 7 10 8 8 30 24 17 15 19 15 9 9 19 30 27 29 37 41 39 36 35 33 31 28 24 20 17 15 13 12 11 9 8 7 5 4 2 4 8 12 14 15 16 16 17 19
4 6 9 10 13 10 9 21 18 22 24 25 13 9 8 27 27 30 35 39 43 42 40 38 37 34 28 24 20 19 18 15 14 12 12 10 8 7 4 0 3 5 8 11 15 18 20 21 20
4 6 7 9 9 11 11 10 6 16 20 14 32 14 12 29 32 34 40 43 45 44 44 42 41 37 32 28 26 23 20 18 17 16 14 12 10 7 4 3 3 7 12 18 25 29 30 30 27
4 5 7 10 5 6 15 8 9 11 11 20 28 21 18 17 34 39 46 48 49 49 49 48 46 42 38 35 32 28 24 21 19 16 14 12 10 9 7 7 10 16 21 25 28 29 33 35 35
8 6 13 9 7 5 8 13 16 10 14 20 28 39 39 32 36 45 51 52 52 52 54 53 52 48 43 40 35 34 30 26 23 21 19 18 16 13 11 12 15 18 19 22 24 29 32 33 34
11 12 9 10 11 9 6 8 15 15 15 33 48 60 51 49 49 53 56 57 53 52 55 56 55 53 49 45 40 37 32 29 27 26 24 21 19 17 16 16 17 19 22 24 26 28 29 29 29
11 26 37 21 17 9 6 13 12 39 49 14 22 44 55 60 60 60 64 64 61 60 58 57 58 58 54 51 47 43 39 34 31 29 27 25 23 21 19 18 20 23 24 25 27 29 29 28 28
16 14 35 30 28 28 24 35 22 51 52 54 59 54 46 64 69 64 61 59 62 66 64 63 61 63 61 58 53 50 45 40 38 36 34 32 29 26 25 24 24 25 25 26 26 27 28 28 27
8 13 26 27 28 30 17 16 13 51 48 56 66 62 65 69 68 65 71 71 70 70 69 65 66 66 66 64 59 54 50 47 45 43 41 38 35 31 28 28 26 26 27 29 29 30 31 33 31
12 15 18 30 38 16 23 20 28 88 59 43 44 55 72 74 69 76 75 77 73 74 71 70 70 68 68 67 64 59 55 53 51 49 48 44 40 38 34 31 28 27 27 27 28 29 32 34 34
5 3 7 6 16 15 26 32 19 43 48 64 70 58 56 68 77 73 74 75 75 74 76 72 74 72 68 68 68 64 60 57 56 53 51 47 44 41 36 33 30 28 27 26 27 29 34 37 40
8 12 17 20 30 14 15 21 16 26 47 60 61 64 63 64 68 76 79 76 78 77 76 79 81 78 71 67 71 67 63 62 60 59 57 53 51 47 40 36 33 29 27 27 28 31 36 39 42
17 13 14 17 6 8 15 31 36 43 19 37 45 52 64 71 90 84 77 83 82 80 77 80 82 80 73 69 72 71 68 68 68 65 63 60 57 50 44 41 36 32 28 29 31 34 36 40 46
10 12 14 18 16 14 26 33 41 52 38 56 72 80 86 90 98 88 80 77 83 84 82 84 87 85 78 78 81 83 82 78 76 72 68 64 60 53 48 43 37 32 29 31 33 35 37 38 43
24 37 38 27 29 19 21 37 26 25 41 50 66 77 91 100 104 94 75 76 85 89 90 88 87 85 83 80 82 85 81 78 76 71 73 68 64 56 52 47 41 34 32 34 37 38 38 39 41
34 27 36 29 14 11 16 23 18 24 50 57 66 84 95 98 91 79 63 70 82 95 94 90 87 82 83 82 82 84 79 77 80 84 80 74 68 61 57 52 44 37 35 37 38 38 37 36 37
45 19 24 19 5 28 12 38 15 16 32 28 58 69 84 92 82 69 57 67 79 93 93 87 82 79 82 82 84 88 89 90 94 90 82 76 72 67 64 57 49 43 40 41 40 39 38 35 35
38 8 17 6 10 11 11 13 8 17 20 24 31 67 87 86 77 48 52 62 72 91 94 87 80 79 81 83 84 85 91 92 88 82 78 77 75 71 67 61 54 48 44 42 40 40 39 39 37
6 3 3 5 3 22 18 21 26 13 27 15 34 66 84 81 59 41 46 61 74 88 89 86 81 82 82 83 83 84 88 90 87 85 83 81 78 74 71 64 57 51 47 42 40 41 40 41 41
6 10 7 7 2 22 23 23 50 16 16 28 34 64 69 72 39 39 46 60 68 81 85 84 82 84 86 87 86 85 84 85 84 86 87 86 83 81 75 66 61 54 47 43 42 41 43 43 43
18 28 13 16 13 26 7 16 13 28 36 51 66 69 67 40 40 43 46 51 60 68 78 82 83 85 89 90 90 86 85 87 82 85 90 91 87 80 69 64 61 56 49 45 44 45 45 45 45
10 13 24 6 4 4 25 28 18 12 19 20 44 57 41 50 50 48 43 47 54 63 68 71 75 82 89 92 93 92 88 87 85 85 90 89 85 77 70 68 64 57 51 49 48 48 47 47 48
6 0 4 6 8 15 29 16 31 11 33 34 21 25 51 44 46 43 40 43 50 51 53 61 72 79 80 85 94 98 96 90 86 87 87 88 82 81 77 72 65 58 53 50 49 49 49 50 50
3 7 10 6 9 27 35 31 15 15 14 21 23 39 38 37 40 43 39 38 42 42 47 56 65 72 76 80 88 100 101 98 95 87 85 87 84 84 80 73 66 60 55 51 51 51 51 52 52
11 24 33 25 37 7 9 30 7 25 17 9 5 12 19 24 27 26 32 37 41 37 46 50 63 72 67 81 91 95 101 99 95 92 87 85 83 83 80 75 69 62 57 55 53 51 50 52 53
Wind_Direction_500mb
200 191 106 50 38 67 269 262 141 76 60 67 77 86 132 92 155 197 171 192 194 191 188 194 195 198 202 207 209 210 215 229 243 256 267 277 291 302 303 302 303 302 300 302 301 300 308 313 308
188 174 87 29 92 31 274 210 122 137 131 107 93 68 80 142 186 172 169 196 199 189 186 190 190 192 193 197 202 200 212 220 231 243 255 266 271 275 279 281 283 288 292 293 294 295 300 301 303
143 157 49 109 165 197 236 168 161 123 132 139 117 131 154 186 202 210 187 191 198 190 185 187 189 196 196 201 205 205 212 223 241 253 259 262 269 273 279 284 288 289 290 293 296 301 301 300 297
154 139 265 94 246 263 227 158 145 130 130 157 149 163 201 201 204 184 198 188 198 191 191 192 195 197 192 193 193 195 199 205 223 228 235 241 250 257 274 285 291 293 294 297 305 309 311 308 305
76 239 41 250 260 268 210 164 158 150 163 192 180 218 219 211 223 215 198 197 200 194 198 199 201 196 189 188 188 186 188 187 197 206 214 227 247 265 282 296 305 311 322 332 335 329 325 321 315
339 263 34 253 251 267 191 161 159 157 186 180 194 165 227 228 222 218 207 202 203 203 204 207 206 204 200 197 195 192 191 193 197 201 207 210 215 219 225 267 336 355 355 352 345 337 331 327 327
146 97 226 252 260 290 224 166 165 180 172 189 187 170 231 216 211 216 208 204 210 208 210 211 209 209 209 209 208 207 201 199 202 207 205 199 192 197 206 313 2 350 337 337 332 331 330 325 328
252 109 278 244 237 250 173 149 192 207 223 221 201 215 224 230 209 205 207 211 217 216 213 213 214 214 214 215 211 209 205 206 206 205 203 200 195 194 187 210 296 320 333 336 334 332 332 331 332
247 44 254 256 243 213 169 165 197 227 216 199 203 234 235 228 206 205 209 213 219 220 220 218 218 218 216 215 213 211 210 211 210 210 211 218 219 225 243 287 318 331 337 335 330 325 321 321 320
169 160 235 223 313 322 215 197 194 214 226 228 225 234 242 235 217 215 218 221 224 224 224 221 221 219 218 218 215 212 210 208 209 211 216 224 232 241 262 284 304 316 318 318 318 321 322 319 316
199 215 219 299 331 332 298 261 229 201 246 229 229 234 237 237 234 232 231 236 238 232 227 227 224 224 221 222 220 219 215 213 212 217 225 231 238 249 263 275 287 293 296 301 311 322 323 317 313
225 241 253 276 275 269 260 277 250 230 241 267 250 251 246 237 239 241 239 238 235 234 234 231 227 227 225 223 222 222 221 220 222 226 233 238 245 255 265 277 285 286 291 301 310 316 321 325 323
217 241 256 274 261 258 255 258 254 264 255 253 252 259 247 243 246 246 247 244 239 237 236 234 230 230 226 227 224 224 224 224 226 228 232 237 244 251 258 266 272 279 287 297 308 316 322 323 323
270 268 271 272 266 250 208 262 238 266 273 259 246 246 251 251 252 249 244 244 240 239 238 235 233 231 228 227 226 225 224 225 226 228 231 234 240 246 254 262 270 277 288 298 309 316 324 329 326
287 307 310 259 249 223 204 281 225 263 254 255 248 246 246 248 252 252 255 252 247 243 240 236 235 232 229 226 225 224 224 225 227 227 230 234 239 245 251 258 264 273 284 296 305 317 325 324 319
256 209 279 252 179 196 155 263 234 259 249 245 247 245 244 248 251 256 257 254 249 244 240 236 236 234 231 228 226 224 225 227 230 230 233 236 240 244 248 253 259 267 279 291 304 314 319 323 323
241 238 218 294 188 153 180 251 261 265 240 246 246 243 242 249 249 255 256 255 252 246 240 235 235 234 232 229 228 226 227 230 233 233 235 237 240 242 246 252 258 267 280 291 299 306 315 321 320
214 224 246 230 212 160 198 247 267 254 257 246 243 243 242 249 265 267 260 255 248 244 241 238 235 232 230 231 228 226 227 229 231 233 235 236 237 238 242 248 253 261 273 284 294 302 313 319 320
232 261 239 265 252 179 228 235 246 261 240 247 255 261 264 266 270 268 265 254 245 239 235 234 232 229 227 227 224 225 225 226 231 232 234 235 238 239 241 246 253 262 272 282 288 297 306 313 316
244 259 268 278 264 202 246 245 243 255 254 237 243 250 256 264 268 269 262 256 239 236 232 231 233 232 229 230 229 228 230 229 234 237 237 236 238 238 241 245 250 257 268 277 284 293 301 310 318
244 244 260 265 301 250 296 267 232 248 247 252 249 255 263 264 263 264 256 247 237 228 230 231 233 233 231 230 228 228 227 229 231 232 234 235 236 236 238 242 248 256 266 275 281 288 295 303 311
263 225 244 244 236 270 151 291 231 242 248 247 252 252 255 255 260 263 252 238 232 232 229 231 232 232 230 230 228 228 229 228 231 234 236 238 236 236 238 241 245 251 260 269 275 282 288 296 300
257 223 239 240 240 313 176 285 231 187 241 251 249 248 255 262 266 255 241 236 234 229 226 228 231 231 229 229 230 229 232 234 238 239 239 239 237 236 237 239 242 248 256 263 271 277 284 290 295
123 74 355 30 80 265 174 202 261 192 219 244 246 250 258 263 255 249 236 222 224 224 224 227 229 228 227 228 230 232 234 236 235 236 237 236 236 235 236 238 240 245 252 261 268 274 281 287 291
155 100 295 313 346 251 186 210 253 290 249 220 232 239 239 246 239 222 215 213 221 221 222 226 229 228 227 229 231 234 235 238 239 240 241 238 236 233 234 235 238 244 251 259 267 273 276 281 288
195 202 184 206 233 277 136 245 256 214 230 238 242 240 234 218 217 219 223 222 221 222 223 224 225 227 229 230 232 234 237 240 240 241 243 243 242 241 239 238 238 241 248 255 261 266 273 280 283
187 182 228 299 126 26 265 270 290 241 247 248 238 236 224 223 217 215 218 223 225 224 227 227 228 230 232 233 234 235 237 239 241 241 242 244 245 241 237 235 237 240 245 254 261 265 271 277 282
159 79 109 236 209 246 261 262 265 273 270 259 265 216 236 220 214 217 222 228 230 228 230 233 233 237 239 240 239 240 240 240 241 242 243 245 242 238 236 235 237 240 244 251 259 265 271 275 280
86 247 234 293 193 250 263 271 217 242 248 258 246 234 223 220 231 235 229 228 230 228 228 235 239 241 240 243 243 243 243 241 240 243 243 244 240 237 236 236 237 240 246 252 257 263 268 275 281
254 229 228 241 251 240 270 262 185 252 233 186 313 321 263 243 238 234 238 235 231 229 234 241 243 243 254 252 248 246 244 244 242 242 243 242 237 234 235 235 237 239 244 250 256 262 270 277 281
Wind_Speed_850mb
7 5 1 4 7 9 7 10 6 6 5 6 16 9 16 7 5 7 24 29 28 30 26 25 24 22 21 19 17 15 12 11 8 8 8 10 11 13 13 12 12 15 16 18 19 21 22 21 20
5 7 4 1 6 4 10 6 8 4 11 13 13 8 10 2 5 10 30 37 33 34 27 24 21 19 18 16 16 14 13 12 13 14 13 13 14 15 15 15 15 17 20 22 23 24 24 24 25
5 3 1 7 5 8 7 9 14 12 14 10 7 3 4 10 13 10 21 34 40 33 29 27 24 22 19 18 16 14 13 12 14 13 12 13 14 15 15 14 14 14 16 20 23 24 24 26 28
6 4 2 6 13 16 7 11 15 19 9 14 10 5 8 18 9 14 25 33 39 36 31 29 28 26 22 19 18 17 15 14 12 10 9 7 7 7 8 10 11 12 14 16 17 20 21 24 24
3 2 2 5 13 11 2 31 30 11 14 18 18 8 8 24 27 17 22 37 41 39 34 31 30 27 23 22 19 16 14 13 11 10 8 7 7 6 6 7 7 7 7 10 13 15 16 17 18
3 1 4 7 10 8 8 30 24 17 15 19 15 9 9 19 30 27 29 37 41 39 36 35 33 31 28 24 20 17 15 13 12 11 9 8 7 5 4 2 4 8 12 14 15 16 16 17 19
4 6 9 10 13 10 9 21 18 22 24 25 13 9 8 27 27 30 35 39 43 42 40 38 37 34 28 24 20 19 18 15 14 12 12 10 8 7 4 0 3 5 8 11 15 18 20 21 20
4 6 7 9 9 11 11 10 6 16 20 14 32 14 12 29 32 34 40 43 45 44 44 42 41 37 32 28 26 23 20 18 17 16 14 12 10 7 4 3 3 7 12 18 25 29 30 30 27
4 5 7 10 5 6 15 8 9 11 11 20 28 21 18 17 34 39 46 48 49 49 49 48 46 42 38 35 32 28 24 21 19 16 14 12 10 9 7 7 10 16 21 25 28 29 33 35 35
8 6 13 9 7 5 8 13 16 10 14 20 28 39 39 32 36 45 51 52 52 52 54 53 52 48 43 40 35 34 30 26 23 21 19 18 16 13 11 12 15 18 19 22 24 29 32 33 34
11 12 9 10 11 9 6 8 15 15 15 33 48 60 51 49 49 53 56 57 53 52 55 56 55 53 49 45 40 37 32 29 27 26 24 21 19 17 16 16 17 19 22 24 26 28 29 29 29
11 26 37 21 17 9 6 13 12 39 49 14 22 44 55 60 60 60 64 64 61 60 58 57 58 58 54 51 47 43 39 34 31 29 27 25 23 21 19 18 20 23 24 25 27 29 29 28 28
16 14 35 30 28 28 24 35 22 51 52 54 59 54 46 64 69 64 61 59 62 66 64 63 61 63 61 58 53 50 45 40 38 36 34 32 29 26 25 24 24 25 25 26 26 27 28 28 27
8 13 26 27 28 30 17 16 13 51 48 56 66 62 65 69 68 65 71 71 70 70 69 65 66 66 66 64 59 54 50 47 45 43 41 38 35 31 28 28 26 26 27 29 29 30 31 33 31
12 15 18 30 38 16 23 20 28 88 59 43 44 55 72 74 69 76 75 77 73 74 71 70 70 68 68 67 64 59 55 53 51 49 48 44 40 38 34 31 28 27 27 27 28 29 32 34 34
5 3 7 6 16 15 26 32 19 43 48 64 70 58 56 68 77 73 74 75 75 74 76 72 74 72 68 68 68 64 60 57 56 53 51 47 44 41 36 33 30 28 27 26 27 29 34 37 40
8 12 17 20 30 14 15 21 16 26 47 60 61 64 63 64 68 76 79 76 78 77 76 79 81 78 71 67 71 67 63 62 60 59 57 53 51 47 40 36 33 29 27 27 28 31 36 39 42
17 13 14 17 6 8 15 31 36 43 19 37 45 52 64 71 90 84 77 83 82 80 77 80 82 80 73 69 72 71 68 68 68 65 63 60 57 50 44 41 36 32 28 29 31 34 36 40 46
10 12 14 18 16 14 26 33 41 52 38 56 72 80 86 90 98 88 80 77 83 84 82 84 87 85 78 78 81 83 82 78 76 72 68 64 60 53 48 43 37 32 29 31 33 35 37 38 43
24 37 38 27 29 19 21 37 26 25 41 50 66 77 91 100 104 94 75 76 85 89 90 88 87 85 83 80 82 85 81 78 76 71 73 68 64 56 52 47 41 34 32 34 37 38 38 39 41
34 27 36 29 14 11 16 23 18 24 50 57 66 84 95 98 91 79 63 70 82 95 94 90 87 82 83 82 82 84 79 77 80 84 80 74 68 61 57 52 44 37 35 37 38 38 37 36 37
45 19 24 19 5 28 12 38 15 16 32 28 58 69 84 92 82 69 57 67 79 93 93 87 82 79 82 82 84 88 89 90 94 90 82 76 72 67 64 57 49 43 40 41 40 39 38 35 35
38 8 17 6 10 11 11 13 8 17 20 24 31 67 87 86 77 48 52 62 72 91 94 87 80 79 81 83 84 85 91 92 88 82 78 77 75 71 67 61 54 48 44 42 40 40 39 39 37
6 3 3 5 3 22 18 21 26 13 27 15 34 66 84 81 59 41 46 61 74 88 89 86 81 82 82 83 83 84 88 90 87 85 83 81 78 74 71 64 57 51 47 42 40 41 40 41 41
6 10 7 7 2 22 23 23 50 16 16 28 34 64 69 72 39 39 46 60 68 81 85 84 82 84 86 87 86 85 84 85 84 86 87 86 83 81 75 66 61 54 47 43 42 41 43 43 43
18 28 13 16 13 26 7 16 13 28 36 51 66 69 67 40 40 43 46 51 60 68 78 82 83 85 89 90 90 86 85 87 82 85 90 91 87 80 69 64 61 56 49 45 44 45 45 45 45
10 13 24 6 4 4 25 28 18 12 19 20 44 57 41 50 50 48 43 47 54 63 68 71 75 82 89 92 93 92 88 87 85 85 90 89 85 77 70 68 64 57 51 49 48 48 47 47 48
6 0 4 6 8 15 29 16 31 11 33 34 21 25 51 44 46 43 40 43 50 51 53 61 72 79 80 85 94 98 96 90 86 87 87 88 82 81 77 72 65 58 53 50 49 49 49 50 50
3 7 10 6 9 27 35 31 15 15 14 21 23 39 38 37 40 43 39 38 42 42 47 56 65 72 76 80 88 100 101 98 95 87 85 87 84 84 80 73 66 60 55 51 51 51 51 52 52
11 24 33 25 37 7 9 30 7 25 17 9 5 12 19 24 27 26 32 37 41 37 46 50 63 72 67 81 91 95 101 99 95 92 87 85 83 83 80 75 69 62 57 55 53 51 50 52 53
Wind_Direction_850mb
200 191 106 50 38 67 269 262 141 76 60 67 77 86 132 92 155 197 171 192 194 191 188 194 195 198 202 207 209 210 215 229 243 256 267 277 291 302 303 302 303 302 300 302 301 300 308 313 308
188 174 87 29 92 31 274 210 122 137 131 107 93 68 80 142 186 172 169 196 199 189 186 190 190 192 193 197 202 200 212 220 231 243 255 266 271 275 279 281 283 288 292 293 294 295 300 301 303
143 157 49 109 165 197 236 168 161 123 132 139 117 131 154 186 202 210 187 191 198 190 185 187 189 196 196 201 205 205 212 223 241 253 259 262 269 273 279 284 288 289 290 293 296 301 301 300 297
154 139 265 94 246 263 227 158 145 130 130 157 149 163 201 201 204 184 198 188 198 191 191 192 195 197 192 193 193 195 199 205 223 228 235 241 250 257 274 285 291 293 294 297 305 309 311 308 305
76 239 41 250 260 268 210 164 158 150 163 192 180 218 219 211 223 215 198 197 200 194 198 199 201 196 189 188 188 186 188 187 197 206 214 227 247 265 282 296 305 311 322 332 335 329 325 321 315
339 263 34 253 251 267 191 161 159 157 186 180 194 165 227 228 222 218 207 202 203 203 204 207 206 204 200 197 195 192 191 193 197 201 207 210 215 219 225 267 336 355 355 352 345 337 331 327 327
146 97 226 252 260 290 224 166 165 180 172 189 187 170 231 216 211 216 208 204 210 208 210 211 209 209 209 209 208 207 201 199 202 207 205 199 192 197 206 313 2 350 337 337 332 331 330 325 328
252 109 278 244 237 250 173 149 192 207 223 221 201 215 224 230 209 205 207 211 217 216 213 213 214 214 214 215 211 209 205 206 206 205 203 200 195 194 187 210 296 320 333 336 334 332 332 331 332
247 44 254 256 243 213 169 165 197 227 216 199 203 234 235 228 206 205 209 213 219 220 220 218 218 218 216 215 213 211 210 211 210 210 211 218 219 225 243 287 318 331 337 335 330 325 321 321 320
169 160 235 223 313 322 215 197 194 214 226 228 225 234 242 235 217 215 218 221 224 224 224 221 221 219 218 218 215 212 210 208 209 211 216 224 232 241 262 284 304 316 318 318 318 321 322 319 316
199 215 219 299 331 332 298 261 229 201 246 229 229 234 237 237 234 232 231 236 238 232 227 227 224 224 221 222 220 219 215 213 212 217 225 231 238 249 263 275 287 293 296 301 311 322 323 317 313
225 241 253 276 275 269 260 277 250 230 241 267 250 251 246 237 239 241 239 238 235 234 234 231 227 227 225 223 222 222 221 220 222 226 233 238 245 255 265 277 285 286 291 301 310 316 321 325 323
217 241 256 274 261 258 255 258 254 264 255 253 252 259 247 243 246 246 247 244 239 237 236 234 230 230 226 227 224 224 224 224 226 228 232 237 244 251 258 266 272 279 287 297 308 316 322 323 323
270 268 271 272 266 250 208 262 238 266 273 259 246 246 251 251 252 249 244 244 240 239 238 235 233 231 228 227 226 225 224 225 226 228 231 234 240 246 254 262 270 277 288 298 309 316 324 329 326
287 307 310 259 249 223 204 281 225 263 254 255 248 246 246 248 252 252 255 252 247 243 240 236 235 232 229 226 225 224 224 225 227 227 230 234 239 245 251 258 264 273 284 296 305 317 325 324 319
256 209 279 252 179 196 155 263 234 259 249 245 247 245 244 248 251 256 257 254 249 244 240 236 236 234 231 228 226 224 225 227 230 230 233 236 240 244 248 253 259 267 279 291 304 314 319 323 323
241 238 218 294 188 153 180 251 261 265 240 246 246 243 242 249 249 255 256 255 252 246 240 235 235 234 232 229 228 226 227 230 233 233 235 237 240 242 246 252 258 267 280 291 299 306 315 321 320
214 224 246 230 212 160 198 247 267 254 257 246 243 243 242 249 265 267 260 255 248 244 241 238 235 232 230 231 228 226 227 229 231 233 235 236 237 238 242 248 253 261 273 284 294 302 313 319 320
232 261 239 265 252 179 228 235 246 261 240 247 255 261 264 266 270 268 265 254 245 239 235 234 232 229 227 227 224 225 225 226 231 232 234 235 238 239 241 246 253 262 272 282 288 297 306 313 316
244 259 268 278 264 202 246 245 243 255 254 237 243 250 256 264 268 269 262 256 239 236 232 231 233 232 229 230 229 228 230 229 234 237 237 236 238 238 241 245 250 257 268 277 284 293 301 310 318
244 244 260 265 301 250 296 267 232 248 247 252 249 255 263 264 263 264 256 247 237 228 230 231 233 233 231 230 228 228 227 229 231 232 234 235 236 236 238 242 248 256 266 275 281 288 295 303 311
263 225 244 244 236 270 151 291 231 242 248 247 252 252 255 255 260 263 252 238 232 232 229 231 232 232 230 230 228 228 229 228 231 234 236 238 236 236 238 241 245 251 260 269 275 282 288 296 300
257 223 239 240 240 313 176 285 231 187 241 251 249 248 255 262 266 255 241 236 234 229 226 228 231 231 229 229 230 229 232 234 238 239 239 239 237 236 237 239 242 248 256 263 271 277 284 290 295
123 74 355 30 80 265 174 202 261 192 219 244 246 250 258 263 255 249 236 222 224 224 224 227 229 228 227 228 230 232 234 236 235 236 237 236 236 235 236 238 240 245 252 261 268 274 281 287 291
155 100 295 313 346 251 186 210 253 290 249 220 232 239 239 246 239 222 215 213 221 221 222 226 229 228 227 229 231 234 235 238 239 240 241 238 236 233 234 235 238 244 251 259 267 273 276 281 288
195 202 184 206 233 277 136 245 256 214 230 238 242 240 234 218 217 219 223 222 221 222 223 224 225 227 229 230 232 234 237 240 240 241 243 243 242 241 239 238 238 241 248 255 261 266 273 280 283
187 182 228 299 126 26 265 270 290 241 247 248 238 236 224 223 217 215 218 223 225 224 227 227 228 230 232 233 234 235 237 239 241 241 242 244 245 241 237 235 237 240 245 254 261 265 271 277 282
159 79 109 236 209 246 261 262 265 273 270 259 265 216 236 220 214 217 222 228 230 228 230 233 233 237 239 240 239 240 240 240 241 242 243 245 242 238 236 235 237 240 244 251 259 265 271 275 280
86 247 234 293 193 250 263 271 217 242 248 258 246 234 223 220 231 235 229 228 230 228 228 235 239 241 240 243 243 243 243 241 240 243 243 244 240 237 236 236 237 240 246 252 257 263 268 275 281
254 229 228 241 251 240 270 262 185 252 233 186 313 321 263 243 238 234 238 235 231 229 234 241 243 243 254 252 248 246 244 244 242 242 243 242 237 234 235 235 237 239 244 250 256 262 270 277 281